Miscellaneous Local Product
Issued by NWS Hastings, NE

Home | Current Version | Previous Version | Graphics & Text | Print | Product List | Glossary On
Versions: 1 2 3 4 5 6 7 8 9 10 11 12 13 14 15 16 17 18 19 20 21 22 23 24 25 26 27 28 29 30 31 32 33 34 35 36 37 38 39 40 41 42 43 44 45 46 47 48 49 50
000
AXUS43 KGID 141202
MISGRI

GID CWA HOURLY WEATHER ROUNDUP
NATIONAL WEATHER SERVICE HASTINGS NE
700 AM CDT SUN SEP 14 2014

NOTE: "FAIR" INDICATES FEW OR NO CLOUDS BELOW 12,000 FEET WITH NO
SIGNIFICANT WEATHER AND/OR OBSTRUCTIONS TO VISIBILITY.

...SOUTH CENTRAL NEBRASKA...

CITY           SKY/WX    TMP DP  RH WIND       PRES   REMARKS
GRAND ISLAND   CLEAR     40  38  93 CALM      30.18S
HASTINGS       CLEAR     46  40  79 S6        30.17S
KEARNEY        CLEAR     39  37  93 E3        30.17S
ORD            MOCLDY    37  37 100 CALM      30.17R FOG
YORK           CLEAR     45  43  93 S6        30.19F
AURORA         CLEAR     43  41  93 S3        30.18S
LEXINGTON      CLEAR     39  38  95 E3        30.15F
HOLDREGE       CLEAR     40  37  91 CALM      30.16S
HEBRON         CLEAR     40  38  93 CALM      30.20S

...NEBRASKA PANHANDLE...

CITY           SKY/WX    TMP DP  RH WIND       PRES   REMARKS
CHADRON        PTCLDY    37  36  96 NE6       30.13F WCI  32
ALLIANCE       MOCLDY    41  39  93 E9        30.11S
SCOTTSBLUFF    CLOUDY    44  42  93 MISG      30.10S
SIDNEY         CLOUDY    44  42  93 CALM      30.10R FOG

...WESTERN AND NORTH CENTRAL NEBRASKA...

CITY           SKY/WX    TMP DP  RH WIND       PRES   REMARKS
VALENTINE      PTCLDY    39  37  92 N3        30.18F
AINSWORTH      PTCLDY    38  37  94 N3        30.18F
ONEILL         PTCLDY    41  40  97 N5        30.18S
BROKEN BOW     CLEAR     36  35  96 N5        30.15F WCI  32
IMPERIAL       CLEAR     40  38  93 SE7       30.11S
NORTH PLATTE   CLEAR     37  36  96 E6        30.13F WCI  32
MCCOOK         CLEAR     40  38  93 E3        30.14S

...EASTERN NEBRASKA...

CITY           SKY/WX    TMP DP  RH WIND       PRES   REMARKS
NORFOLK        CLEAR     39  38  96 SW3       30.19F
SO SIOUX CITY  CLEAR     42  41  96 SE5       30.20S
TEKAMAH        CLEAR     44  42  93 CALM      30.20S
ALBION         CLEAR     39  36  91 CALM      30.18S
OMAHA EPPLEY   PTCLDY    51  46  83 S8        30.22S
OFFUTT AFB     MOCLDY    48  47  99 E3        30.22R
LINCOLN        CLEAR     47  44  90 S5        30.22S
NEBRASKA CITY  CLEAR     46  44  91 S5        30.22S
BEATRICE       CLEAR     47  44  91 CALM      30.22R
FALLS CITY     CLOUDY    52  47  83 S6        30.23S

...NORTHERN KANSAS...

CITY           SKY/WX    TMP DP  RH WIND       PRES   REMARKS
GOODLAND       CLEAR     43  43 100 S7        30.12S
HILL CITY      CLEAR     42  40  92 E5        30.15S
NORTON         SUNNY     39  37  93 E3        30.14S
PHILLIPSBURG   CLEAR     43  43 100 NE6       30.17S
SMITH CENTER   CLEAR     43  39  87 E8        30.18S
BELOIT         CLEAR     46  45  93 E5        30.18S
HAYS           CLEAR     43  37  81 SE5       30.16S
RUSSELL        CLEAR     48  45  89 S8        30.16S
CONCORDIA      CLEAR     47  45  93 CALM      30.19S
SALINA         CLEAR     49  45  86 SE6       30.20S
TOPEKA         MOCLDY    51  48  89 CALM      30.25S



USA.gov is the U.S. government's official web portal to all federal, state and local government web resources and services.